Temp
7 7 7 7 7 7 7 7 7 7 7 7 7 7 8 7 7 8 8 8 8 8 10 13 13 13 13 14 15 15 13 12 12 14 16 19 20 19 19 18 19 19 19 19 20 20 21 22 22 22 23 24 24 25 24 25 25 25 25 25 24 26 27 28 28 28 27 28 27 28 28 27 28 29 29 30 29 29 29 28 28 27 27 27 26 25 23 21
7 7 7 7 7 7 7 7 7 7 7 7 7 7 8 7 7 8 8 8 8 8 10 12 12 13 14 14 15 15 12 11 14 17 18 19 19 19 19 18 18 19 19 20 21 22 22 22 23 23 24 24 24 25 24 25 25 25 26 25 25 28 28 27 27 27 27 27 27 27 28 27 28 28 29 29 29 30 30 29 28 27 26 26 25 23 22 20
6 7 7 7 7 7 7 7 7 7 7 7 7 7 7 7 7 7 8 8 8 9 10 12 12 13 14 15 15 14 12 13 17 20 20 19 19 19 18 18 18 18 19 21 22 23 24 23 23 24 24 24 24 24 24 24 24 25 26 25 27 28 27 26 27 26 26 27 27 27 27 28 28 29 29 28 29 30 30 30 29 28 25 24 24 23 21 19
6 6 7 7 7 7 7 7 7 7 7 7 7 7 7 7 8 8 8 8 9 10 11 13 13 13 14 15 16 14 12 16 21 22 20 19 20 20 18 18 18 18 19 21 22 23 24 24 24 24 24 24 24 24 24 24 25 26 25 26 27 27 26 27 26 26 26 26 27 27 27 28 29 29 28 29 29 30 31 29 29 28 25 24 23 22 21 20
6 6 6 7 7 7 7 7 7 7 7 7 7 7 7 7 7 8 8 9 10 11 12 13 14 14 14 15 16 13 14 20 23 22 20 20 20 20 19 18 18 18 19 21 22 23 23 24 24 24 24 24 24 24 24 25 25 25 25 26 27 26 26 27 26 26 26 26 27 27 27 27 28 28 29 29 28 30 30 29 28 27 25 24 23 22 23 22
6 6 6 7 7 7 7 7 7 7 7 7 7 7 9 9 8 8 9 9 10 11 12 14 14 14 15 15 15 13 16 22 23 21 20 20 21 20 19 18 18 18 19 21 22 23 23 23 23 23 24 25 24 24 25 25 25 25 26 26 27 26 26 26 26 26 26 26 26 26 27 27 27 28 29 29 29 30 30 29 28 27 26 25 23 23 23 22
6 6 6 6 7 7 7 7 7 7 7 7 7 7 9 12 12 11 10 9 10 10 11 13 14 14 15 15 15 15 19 23 22 20 20 20 20 20 19 18 18 18 20 22 23 23 23 23 23 24 24 25 24 25 25 25 24 24 26 26 26 26 26 26 26 26 26 26 26 27 27 27 27 28 29 29 29 30 29 29 28 27 26 25 23 23 23 23
6 6 6 6 6 6 6 6 7 7 7 7 7 7 8 12 14 13 12 10 9 8 10 13 13 14 14 14 16 19 22 23 21 20 20 19 19 19 18 17 18 19 21 23 23 23 23 23 24 24 25 25 25 25 24 24 24 24 25 26 26 26 26 26 26 26 26 26 27 27 26 27 28 28 28 29 29 29 28 28 27 26 25 24 23 23 24 23
6 6 6 6 6 6 6 6 7 7 7 7 7 7 7 10 13 14 13 11 8 8 9 11 12 14 13 14 18 22 23 21 20 20 19 18 18 18 18 18 18 20 22 23 23 24 24 24 24 24 25 25 25 25 24 24 24 24 25 26 26 26 26 26 26 26 26 26 27 26 26 28 28 27 28 29 28 28 28 27 26 26 25 24 24 24 24 24
6 6 6 6 6 6 6 6 7 7 7 7 7 7 7 9 12 13 12 10 8 8 8 9 11 13 13 15 19 22 22 20 19 20 19 18 18 18 19 19 19 21 22 23 23 24 24 24 25 24 24 24 24 24 24 24 25 25 25 25 25 25 26 26 25 26 26 27 26 26 26 28 28 27 28 28 27 27 28 27 26 26 25 25 25 25 24 24
6 6 6 6 6 6 6 6 7 7 7 6 6 7 7 9 12 12 11 10 9 8 7 8 10 12 13 16 19 22 21 20 19 19 20 20 19 19 20 20 20 21 22 22 23 23 23 24 25 24 24 24 24 24 24 25 25 25 25 25 25 25 25 25 25 26 26 27 27 27 27 28 28 27 28 27 27 28 28 27 26 25 25 25 25 25 24 24
6 6 6 6 6 6 6 6 6 6 7 6 6 6 7 10 12 12 12 11 9 8 7 8 10 11 13 17 20 21 21 20 19 19 19 20 20 20 20 20 20 21 22 23 23 23 23 23 24 24 24 24 24 24 24 25 25 25 25 24 25 26 25 26 26 26 26 26 27 27 26 27 27 27 28 27 27 28 27 27 26 25 25 25 25 25 24 25
6 6 6 6 6 6 6 6 6 6 6 6 6 6 8 11 13 13 13 11 9 7 7 8 10 10 13 18 21 20 19 19 18 18 19 19 20 20 19 20 20 21 22 23 23 22 22 22 23 24 24 24 25 24 24 25 24 25 25 24 25 25 25 26 26 26 26 26 27 26 24 26 29 29 28 27 27 27 27 27 26 25 26 25 25 24 25 25
6 6 6 6 6 6 6 6 6 6 6 6 6 6 9 12 12 12 12 11 8 7 8 9 9 11 14 19 21 19 19 18 17 18 19 19 20 20 19 19 20 20 21 21 22 22 22 22 23 23 24 24 25 24 24 24 24 25 25 24 25 24 24 26 26 26 26 26 27 26 23 25 30 29 27 27 27 27 27 27 26 25 26 25 24 24 25 25
6 6 6 6 6 6 6 6 6 6 6 6 6 7 10 11 11 11 11 11 9 8 8 9 10 12 16 20 20 18 18 18 18 19 19 19 20 21 21 20 20 20 20 21 21 21 21 22 22 23 23 24 24 24 24 24 24 25 23 23 24 24 24 26 26 26 26 26 27 26 23 26 30 28 27 26 26 27 27 27 26 25 25 26 25 24 25 25
5 5 6 6 5 6 6 6 6 6 6 6 7 9 10 10 9 10 10 10 10 9 9 11 12 13 18 21 19 18 18 19 20 20 19 19 20 21 21 20 20 20 20 21 21 21 21 22 23 23 24 23 23 24 24 24 24 25 23 22 23 23 24 25 26 26 26 26 27 26 25 27 29 28 27 26 26 27 27 27 26 25 25 26 25 25 25 25
5 5 5 5 5 5 5 5 6 6 6 7 8 10 10 8 8 9 9 9 9 9 10 13 13 13 18 20 19 20 21 21 20 20 20 20 20 21 21 21 21 21 21 21 21 22 22 22 23 23 23 23 24 24 23 21 22 23 24 23 23 24 23 24 25 26 26 26 26 26 26 27 28 29 27 26 26 27 27 27 26 24 25 26 26 25 25 25
5 5 5 5 5 5 5 5 5 6 6 7 9 10 10 9 8 9 9 9 10 10 11 12 13 16 19 20 20 21 22 21 20 20 20 19 20 20 21 22 22 21 21 21 21 22 22 22 23 23 23 23 24 24 22 21 22 23 23 22 23 23 23 23 24 26 26 26 26 26 26 27 28 29 28 26 26 26 27 27 26 25 25 26 26 26 26 25
5 5 5 5 5 5 5 5 5 5 5 7 9 9 9 9 9 10 11 11 12 15 16 15 16 19 21 20 21 21 21 21 20 21 20 20 20 21 22 22 22 22 22 21 21 22 22 22 22 22 22 22 23 24 23 24 24 23 23 23 23 23 23 24 25 26 26 25 25 26 26 27 28 28 28 26 26 26 26 27 26 26 26 26 26 27 26 26
5 5 5 5 5 5 5 5 5 5 6 8 8 9 11 12 13 14 13 13 15 18 20 19 19 20 21 20 21 21 21 21 21 22 21 20 20 21 22 22 22 22 22 22 22 22 22 22 21 22 23 24 24 24 25 25 24 24 24 23 23 23 23 25 25 25 26 24 25 26 26 27 27 28 28 26 26 26 26 26 26 27 27 26 26 27 27 26
5 5 5 5 5 5 5 5 5 6 8 8 8 12 15 16 17 16 15 16 18 19 19 19 20 20 20 21 21 21 21 21 22 22 21 20 21 22 22 22 21 21 22 23 22 22 22 21 22 23 24 25 24 24 24 23 23 23 23 23 23 23 24 25 25 25 26 24 24 26 26 26 27 28 28 26 26 26 26 26 26 27 27 27 27 27 27 26
4 5 5 5 5 5 5 5 5 7 8 8 10 14 16 15 14 14 15 17 19 19 19 19 19 19 20 20 20 19 19 20 21 22 21 21 22 22 22 22 21 22 22 22 21 21 21 21 23 24 24 23 23 23 23 22 22 23 23 23 22 23 24 24 24 25 25 23 24 26 25 26 27 28 28 27 26 27 27 27 26 27 27 27 27 27 27 26
4 5 5 5 5 5 5 6 7 8 8 9 12 15 15 13 13 13 14 15 17 19 19 18 18 18 19 19 19 18 18 19 21 22 22 21 22 22 22 22 22 23 22 21 21 21 21 22 24 24 23 22 22 22 22 22 22 22 23 22 22 24 23 22 24 25 25 24 24 25 24 25 27 27 27 27 27 26 26 26 27 27 27 27 27 27 27 26
5 5 5 5 5 5 6 7 8 9 8 9 11 13 13 12 12 13 14 16 18 19 19 18 18 19 19 19 19 18 19 20 21 22 23 21 22 22 22 23 22 23 22 22 22 22 22 23 24 23 22 22 22 21 22 21 22 23 23 22 22 24 23 22 24 24 24 24 24 24 22 23 26 26 27 28 26 25 25 25 26 26 26 27 27 27 27 26
5 5 5 5 5 5 6 8 9 9 9 11 12 12 12 11 12 12 14 17 19 19 19 18 18 19 19 18 18 19 19 20 21 23 23 22 23 22 22 23 23 22 22 22 22 22 23 23 23 22 22 22 22 22 22 22 22 22 23 23 23 24 23 23 24 24 22 22 24 24 21 22 25 26 27 28 26 25 25 25 25 25 26 26 27 26 26 26
4 4 4 4 4 6 8 10 10 9 10 13 13 11 11 11 11 11 14 18 20 20 19 18 19 19 19 19 19 19 19 20 21 23 23 23 24 23 22 23 23 23 23 23 22 22 23 22 22 22 22 22 22 22 23 22 21 21 23 24 23 24 23 23 24 22 21 22 24 24 21 21 24 25 27 28 27 26 26 25 25 25 25 26 26 26 26 25
4 4 4 4 4 6 9 11 9 9 12 13 12 11 11 11 11 11 15 18 19 20 20 19 20 19 19 20 20 19 19 20 22 22 22 23 24 24 22 22 22 22 23 23 21 22 23 22 21 22 22 22 22 22 23 23 21 22 24 24 24 24 23 23 23 22 22 23 23 24 23 21 21 24 27 27 26 26 25 24 24 25 25 25 25 26 25 25
4 4 4 5 4 4 7 8 8 11 13 12 11 11 11 11 11 13 16 18 19 20 20 20 20 19 20 20 20 20 21 21 21 21 22 23 23 23 22 22 22 22 23 22 20 22 23 21 21 21 21 21 22 23 23 23 22 23 24 24 24 24 24 24 23 22 23 23 21 22 23 21 20 24 27 27 25 25 24 24 24 24 25 25 25 25 24 23
4 4 4 4 4 5 5 5 8 11 11 10 10 11 11 11 12 15 17 17 19 20 20 20 19 20 21 20 19 20 21 21 20 21 22 22 23 23 22 23 23 23 23 22 22 22 22 22 22 22 22 22 23 24 24 23 23 24 24 23 24 24 24 24 23 23 22 21 20 22 23 21 21 23 25 24 24 23 23 23 23 23 24 24 24 24 23 22
4 4 4 4 5 7 7 6 8 9 10 10 10 10 11 12 15 17 17 17 19 20 20 21 20 20 21 21 21 20 20 21 21 21 21 21 22 22 22 23 23 23 22 22 23 23 22 22 22 22 23 23 24 24 24 24 23 24 23 23 23 23 24 23 23 23 21 20 21 22 23 22 21 22 23 22 22 22 23 23 23 23 23 22 21 21 21 21
4 4 4 4 6 7 8 10 10 9 9 10 10 11 12 15 17 17 16 17 19 20 20 20 20 20 21 20 21 21 21 21 21 21 21 21 21 21 22 22 22 22 21 21 22 22 22 21 22 23 23 23 23 23 23 24 24 23 23 23 22 22 22 22 22 22 20 20 21 22 23 22 21 22 22 22 22 22 22 22 23 23 22 20 19 19 20 20
4 4 4 4 5 5 7 11 10 9 9 10 10 13 15 16 17 17 18 19 18 19 19 19 19 20 20 20 20 21 21 21 21 21 21 21 21 21 21 21 21 21 20 20 21 22 22 22 23 23 23 23 23 23 22 23 23 23 23 22 21 21 21 20 21 21 20 21 22 23 23 22 21 22 22 22 21 21 22 22 23 23 21 20 19 19 19 20
4 4 4 5 5 5 7 9 9 8 9 9 11 16 17 16 16 17 19 19 18 18 19 18 19 20 20 21 21 21 21 21 21 22 22 22 21 21 22 22 23 22 21 21 21 21 21 22 23 23 23 23 23 22 22 22 22 22 22 21 21 20 20 20 20 20 21 21 22 23 22 21 22 22 21 21 21 21 21 21 23 23 21 20 20 20 19 20
5 5 5 5 5 6 7 8 8 8 9 10 14 16 16 15 17 17 18 19 18 18 18 18 19 19 20 21 21 21 21 21 21 21 22 22 21 21 22 22 23 23 22 21 21 21 20 21 22 23 23 23 23 23 23 23 23 23 24 23 21 21 21 20 20 21 21 21 21 22 21 21 21 21 20 21 20 20 21 21 22 22 21 20 20 20 20 20
7 6 6 6 6 8 8 7 7 8 9 13 16 16 15 16 17 17 17 18 18 18 19 19 19 19 20 21 21 21 20 20 21 21 21 22 21 21 22 22 22 23 22 21 21 21 20 21 23 24 24 24 23 23 25 24 23 24 25 24 22 22 22 21 20 21 20 21 21 21 21 22 22 20 21 20 20 20 20 20 20 20 20 20 20 20 20 20
8 8 7 8 8 9 8 7 7 8 10 15 16 16 16 17 17 17 17 17 17 17 18 19 19 19 20 21 21 21 20 20 21 21 21 22 22 22 22 23 23 23 23 21 21 21 20 21 24 24 23 24 24 24 25 24 23 23 23 22 23 25 24 21 20 20 20 20 21 21 21 22 21 21 21 21 20 19 19 19 19 19 19 19 19 19 19 20
8 9 11 11 10 10 10 9 8 9 12 16 16 16 17 17 17 17 17 16 17 17 17 18 19 19 19 20 20 21 21 20 21 21 21 21 22 22 23 23 23 23 23 23 22 22 21 21 23 23 22 23 24 24 25 25 24 23 22 23 25 25 24 22 21 20 20 20 21 21 21 21 21 21 21 21 20 18 18 18 18 18 18 18 18 18 18 19
7 9 13 13 11 11 11 10 10 11 15 16 15 16 16 17 16 16 16 16 16 17 17 18 18 18 18 19 20 20 20 20 20 21 21 21 21 21 22 22 23 23 24 24 22 22 22 21 22 24 23 23 23 23 23 24 25 24 23 25 24 22 21 22 21 20 21 20 21 21 21 21 21 20 20 21 19 18 17 18 18 18 18 17 17 17 18 18
7 11 14 12 11 12 12 11 11 14 16 16 16 16 16 16 16 16 16 16 16 16 17 17 18 18 18 19 19 20 20 20 20 20 20 21 20 20 21 22 22 22 23 24 23 22 22 21 21 23 24 23 23 22 22 22 23 24 23 24 24 22 21 22 21 21 21 20 21 21 21 21 21 21 21 20 19 18 18 18 17 18 18 17 18 18 18 18
10 13 14 11 11 12 11 11 13 16 16 16 16 16 16 16 16 16 16 16 16 17 17 17 17 17 18 18 19 19 19 19 20 20 20 21 20 20 21 21 21 22 22 23 23 22 22 21 20 22 23 22 22 22 22 22 23 23 22 22 23 23 23 22 22 22 21 21 21 21 20 20 19 20 20 19 18 18 18 17 17 17 17 18 18 18 18 19
13 14 14 11 11 11 11 12 15 16 16 16 16 16 15 15 16 16 16 16 16 17 17 16 17 17 17 18 18 19 19 19 20 20 20 21 20 19 19 20 20 21 21 21 22 22 21 21 20 21 21 21 22 22 23 23 23 23 22 22 23 22 22 21 21 22 22 21 21 21 21 19 18 19 19 18 18 18 18 17 16 17 17 17 17 18 18 19
14 15 13 11 11 11 12 15 15 15 16 16 15 15 15 14 15 16 16 16 16 16 17 16 16 17 17 17 18 18 18 19 20 20 19 20 20 19 18 18 19 20 21 21 22 22 21 21 21 21 21 22 22 22 21 22 23 23 23 24 24 23 22 21 20 21 21 21 21 21 21 19 17 18 18 17 17 18 17 17 17 17 17 17 17 17 18 18
15 14 12 11 11 12 14 15 15 15 16 15 15 15 14 14 15 15 16 16 16 16 16 16 16 17 17 17 17 18 18 18 19 19 19 20 19 18 19 18 18 19 21 21 21 21 20 21 21 20 22 22 22 21 21 21 22 22 23 23 23 23 23 22 21 21 21 21 21 21 21 18 17 17 17 16 16 17 17 17 17 17 16 16 16 16 16 16
16 14 13 12 11 12 14 15 15 15 15 14 14 15 15 14 15 15 15 16 16 16 16 16 16 17 17 17 17 17 18 17 18 19 19 19 19 18 19 19 18 19 19 19 20 20 20 20 21 20 20 20 20 21 21 21 21 22 22 21 21 22 23 22 22 22 21 21 21 21 20 18 16 17 16 15 15 15 15 15 16 15 15 15 15 15 15 15
15 14 15 14 13 13 15 15 15 15 14 14 14 15 15 15 15 15 15 15 16 16 16 16 17 16 17 17 17 17 18 17 17 18 19 19 19 18 18 19 18 18 18 17 18 20 20 20 20 20 19 19 19 20 20 21 22 21 21 20 20 21 22 21 21 21 21 21 21 21 20 17 16 17 15 15 15 14 14 14 14 15 14 14 15 14 14 15
15 15 14 14 14 15 15 14 15 15 15 14 14 14 15 15 15 15 15 15 16 16 16 16 17 16 16 17 16 17 18 18 17 18 18 18 18 18 18 18 18 17 16 16 17 19 20 19 19 19 18 19 20 20 20 21 21 21 20 20 19 20 20 21 21 21 20 21 21 21 20 17 16 17 15 14 14 13 13 14 14 14 14 14 14 14 13 14
15 15 15 14 14 14 15 15 15 15 15 14 14 14 14 15 15 15 15 15 16 16 16 16 16 16 16 16 16 16 17 18 17 17 17 18 18 17 17 18 18 16 16 17 18 18 18 18 17 17 17 18 19 19 20 21 21 21 20 19 19 19 19 20 21 20 20 21 20 21 21 19 18 17 15 14 14 13 13 12 13 13 14 14 14 13 13 13
15 15 15 14 14 15 15 15 15 15 14 14 14 14 14 15 15 15 15 15 16 16 16 15 16 16 16 16 16 16 16 17 17 17 17 17 17 16 17 17 16 15 15 17 17 17 18 18 17 17 17 17 18 19 19 20 19 19 19 18 18 19 19 19 19 18 19 20 20 20 20 19 17 15 14 14 13 12 12 11 11 12 13 13 13 12 12 11
14 15 14 14 14 15 14 14 14 14 14 14 14 14 14 15 14 14 15 15 15 16 16 15 15 16 16 16 16 15 15 15 15 15 16 16 17 17 16 16 14 14 14 15 15 15 17 17 16 17 17 16 16 18 18 19 18 17 17 18 18 18 18 18 18 18 19 20 20 19 17 15 13 13 12 12 12 11 11 11 11 11 11 11 11 11 11 10
15 15 14 14 15 14 14 13 14 15 14 14 14 14 14 14 14 14 15 15 14 15 16 15 15 16 16 16 16 15 15 15 14 14 15 15 16 17 16 15 15 14 13 12 12 13 15 15 15 16 16 14 14 16 17 18 18 17 16 17 17 18 17 17 17 17 19 19 18 17 15 12 12 11 11 11 11 11 11 10 10 10 10 10 10 9 9 8
14 14 14 15 15 13 13 14 14 15 15 14 14 14 14 14 14 14 15 15 15 15 15 15 15 15 16 16 16 15 15 15 14 15 15 15 15 16 16 15 15 14 13 12 11 12 13 14 13 15 16 14 13 14 16 17 18 16 14 14 15 16 16 15 15 15 17 18 16 16 15 12 11 11 10 10 10 10 9 9 9 8 9 9 9 8 8 8
13 13 14 16 15 13 14 15 14 15 15 13 14 13 13 14 14 14 14 15 16 15 15 15 14 15 16 15 15 15 15 15 14 15 15 15 16 16 16 15 15 14 13 13 12 12 13 14 14 15 16 15 13 13 14 15 17 16 13 11 12 14 14 14 14 13 15 16 16 17 16 12 10 11 10 10 9 9 8 8 8 8 8 8 8 7 7 7
Height
813 813 812 811 810 809 808 807 807 806 805 804 803 802 801 800 799 798 797 796 795 794 793 792 791 791 790 789 788 786 785 784 784 784 782 778 777 777 776 776 777 778 779 781 783 783 784 785 785 786 785 785 785 783 786 785 784 787 789 791 786 778 771 769 771 773 774 774 774 773 771 775 773 766 761 757 758 758 759 758 757 757 758 760 761 763 768 773
812 812 811 811 810 809 808 806 806 805 804 803 802 801 800 799 799 798 797 796 795 794 793 792 791 790 789 788 787 786 784 783 782 780 778 776 776 776 775 775 776 777 778 780 781 780 781 782 783 784 783 784 784 784 787 785 785 787 786 787 780 771 770 770 772 774 776 777 776 773 772 773 771 767 763 764 763 757 758 758 757 760 762 762 764 768 773 775
811 811 811 811 810 808 807 806 805 805 804 803 802 801 800 799 798 798 797 795 794 793 792 791 790 789 788 787 786 785 784 783 779 776 774 775 774 774 774 774 774 776 778 779 779 779 778 779 781 782 782 783 783 784 786 785 786 783 782 785 775 769 773 773 774 776 776 776 777 775 772 772 768 765 765 766 764 757 757 758 757 761 765 767 767 769 773 773
811 811 810 810 809 808 806 805 805 804 803 802 801 800 800 799 798 797 796 795 794 793 792 791 790 789 788 787 786 785 785 782 775 772 773 773 773 772 772 772 774 776 778 779 779 779 778 779 780 780 781 783 783 784 785 784 784 781 781 781 772 772 776 774 775 775 775 775 776 775 773 771 765 764 765 765 765 758 754 756 756 758 764 768 767 768 770 770
811 810 810 809 809 807 806 805 804 804 803 802 801 800 799 798 798 797 795 795 793 792 791 790 789 788 787 786 785 785 785 779 771 771 772 771 771 770 770 771 773 776 778 779 779 779 779 779 779 780 782 781 783 785 783 781 780 780 780 775 771 776 777 773 774 774 775 774 774 775 774 771 766 765 763 764 767 760 753 755 754 755 761 765 766 767 768 770
810 809 809 808 808 807 805 804 803 803 802 801 800 799 798 797 796 796 794 794 793 792 791 790 789 787 786 785 784 785 783 776 770 771 770 769 769 768 769 771 773 776 778 778 778 779 778 778 780 782 781 780 782 783 781 779 780 782 777 772 772 775 776 774 773 774 774 774 775 774 771 769 769 768 761 762 764 755 751 752 752 754 757 761 764 767 768 770
809 809 808 807 807 806 805 804 803 802 801 800 799 798 797 796 795 794 793 793 792 791 790 789 788 787 786 785 784 783 779 772 769 770 769 768 768 768 770 772 774 777 777 777 777 777 777 779 779 779 779 779 780 779 779 779 780 782 776 773 773 773 775 774 773 773 773 774 773 771 770 770 771 768 761 761 757 752 751 750 751 753 755 760 764 766 767 769
808 808 807 806 806 805 804 803 802 801 799 798 798 797 796 795 794 793 792 791 790 790 789 788 787 786 786 785 783 778 772 769 770 770 768 768 769 769 771 773 776 777 777 776 775 775 776 779 778 776 778 777 777 778 779 781 781 782 777 773 774 773 774 773 772 773 772 772 770 769 771 769 767 765 763 760 755 752 751 750 751 754 757 761 764 765 766 768
807 807 806 806 804 804 803 802 801 799 798 797 796 795 794 793 792 791 790 790 789 788 787 787 786 786 786 784 782 774 768 768 770 770 768 769 770 771 773 774 776 777 776 776 775 775 776 777 775 775 776 775 776 777 779 782 780 777 776 773 774 774 772 772 772 772 771 770 769 771 772 766 762 764 763 757 754 753 751 752 753 755 759 761 762 764 766 767
806 806 805 805 804 803 802 801 800 798 797 796 795 794 793 792 791 789 789 788 788 787 786 786 785 785 786 784 780 773 767 768 770 770 769 770 771 772 774 774 776 776 776 776 776 775 774 775 773 774 776 775 776 776 778 780 775 773 774 773 774 774 771 771 772 771 769 768 768 771 770 764 761 766 765 757 754 753 752 755 755 757 761 760 761 763 765 767
805 805 805 804 803 802 801 800 798 797 796 794 793 792 791 790 789 788 787 786 786 786 785 785 784 785 785 783 779 771 767 769 770 770 770 770 772 773 774 775 775 776 775 776 776 775 775 774 773 775 776 775 775 777 776 775 773 773 775 775 774 773 771 771 772 770 768 767 764 766 768 764 763 766 763 757 754 753 754 756 757 759 760 760 761 763 765 766
804 804 804 803 802 801 800 799 797 796 794 793 792 790 789 788 787 786 785 784 784 784 784 784 784 785 785 781 775 768 767 769 770 770 771 771 772 773 774 775 776 776 775 775 775 775 776 775 774 776 775 773 775 778 776 772 773 774 774 777 773 771 771 768 768 767 767 767 760 763 770 765 763 763 756 755 755 753 755 757 758 760 760 760 762 764 765 765
804 803 803 802 801 800 799 797 796 795 793 791 790 789 788 786 786 785 783 783 782 782 782 783 783 785 784 776 767 766 767 769 769 770 771 771 772 773 774 775 775 776 775 775 775 776 777 777 775 774 773 773 774 775 773 772 775 774 773 776 773 771 769 765 766 766 766 766 760 766 775 763 755 755 752 754 755 755 758 757 759 761 759 761 763 764 764 764
804 802 802 801 800 799 798 797 795 794 792 790 789 788 786 785 784 782 781 781 780 781 781 782 783 785 783 772 764 765 766 767 769 769 770 771 771 772 773 774 775 776 776 776 776 777 777 777 776 775 774 773 771 773 774 774 775 773 773 774 772 772 768 763 765 766 766 764 760 767 775 761 749 752 754 754 754 756 758 758 760 762 760 761 763 764 764 764
803 802 801 800 799 798 797 796 794 793 791 789 787 786 784 783 782 781 780 779 779 779 779 781 783 783 778 767 763 764 764 766 767 767 769 769 770 770 771 773 774 775 776 777 777 777 777 777 777 776 774 772 773 775 775 774 772 772 777 775 770 771 768 764 765 764 766 763 759 766 771 759 748 752 755 754 754 755 757 758 760 762 761 761 762 763 764 764
802 801 800 799 798 796 795 794 793 791 789 787 786 784 783 782 781 780 779 778 779 779 780 782 782 782 775 763 762 763 763 764 764 765 767 767 769 769 769 772 773 775 776 776 776 776 777 776 775 773 773 774 776 775 773 775 774 771 775 772 768 770 768 765 765 763 763 763 761 764 766 758 750 751 754 755 755 756 757 757 759 762 761 760 761 761 763 764
800 800 798 797 796 795 794 792 791 790 787 786 784 783 782 781 780 780 779 779 780 779 781 780 780 781 771 760 761 761 759 761 762 764 765 766 768 768 769 770 772 774 775 776 777 776 775 775 775 774 773 774 772 772 778 782 776 770 773 771 768 770 769 768 767 763 762 764 764 763 764 760 752 750 753 755 755 756 758 757 760 764 762 759 759 760 761 763
799 798 797 796 795 794 793 791 790 788 786 785 783 782 781 780 780 780 780 780 781 781 781 780 781 778 766 760 760 759 758 760 762 763 764 765 766 768 768 768 769 772 773 775 775 775 775 773 774 775 774 775 772 773 780 777 768 767 771 772 769 769 771 770 767 763 763 765 765 764 764 761 753 748 751 755 754 756 757 756 759 763 762 759 758 758 759 761
798 797 796 795 793 793 791 790 789 787 785 783 782 782 781 781 781 781 781 781 778 774 771 772 773 767 761 759 758 758 759 760 760 761 762 764 765 767 767 767 768 770 772 774 774 773 773 774 777 777 775 774 771 769 768 764 764 766 768 770 769 768 769 768 766 763 763 768 766 764 762 758 754 749 751 755 754 756 757 755 757 758 759 759 757 755 756 759
797 796 795 794 792 791 790 789 787 785 784 782 783 783 780 778 775 774 777 777 771 763 759 762 763 759 758 758 757 758 759 759 759 758 760 762 763 764 765 766 767 768 769 770 772 770 771 776 778 773 768 764 764 763 761 762 767 770 770 770 769 769 767 764 767 763 762 770 767 761 760 757 754 750 750 754 755 756 757 756 757 755 756 757 756 755 754 757
796 795 794 792 791 790 789 788 786 784 782 781 783 780 775 773 771 771 772 767 761 760 759 758 758 757 756 757 758 758 758 758 757 756 759 760 760 762 763 764 768 770 766 764 769 771 773 777 772 763 760 758 760 763 765 769 772 773 772 771 769 767 764 762 767 763 761 771 768 758 759 757 754 750 748 752 755 756 755 755 756 754 753 753 754 755 753 755
795 794 792 792 790 789 788 786 785 783 781 781 782 778 775 775 776 776 775 767 759 758 758 757 757 757 756 757 759 759 761 760 757 754 756 759 758 760 760 761 766 765 762 765 771 776 778 775 764 757 759 762 765 766 769 773 775 774 772 772 770 764 762 763 764 762 762 770 766 758 760 757 752 748 746 750 752 751 751 751 752 752 751 751 751 752 753 755
794 792 792 791 789 788 786 784 783 782 781 782 781 778 777 778 778 778 778 772 761 755 755 756 756 756 755 756 757 760 762 759 756 752 752 757 756 755 757 759 761 759 763 768 770 774 776 767 757 756 762 767 770 770 772 774 774 774 771 772 770 763 767 770 764 763 764 765 764 761 763 759 751 748 746 746 747 748 749 749 748 748 749 749 748 750 752 755
793 792 791 789 788 787 784 783 782 781 782 781 780 779 778 779 778 778 777 768 758 753 752 754 754 754 753 753 754 757 757 754 753 748 748 753 753 753 755 755 757 759 762 764 764 766 764 757 754 759 765 767 771 773 774 776 774 770 769 770 767 763 769 770 763 763 764 762 762 765 770 761 750 750 745 741 746 749 749 749 749 748 747 747 747 748 749 752
792 791 790 788 787 784 782 782 780 781 781 779 779 778 778 779 777 778 776 764 756 752 751 753 753 753 751 753 754 753 752 751 748 745 744 747 749 751 753 751 753 758 759 759 763 763 757 755 757 762 765 765 770 772 771 774 772 767 765 765 766 764 767 767 763 766 771 766 758 762 776 764 743 744 744 739 745 748 747 749 750 748 747 746 747 749 750 752
791 790 789 787 785 782 781 780 780 781 779 777 778 777 778 778 776 778 774 763 753 748 750 752 751 751 750 752 752 750 753 750 743 742 743 745 745 747 751 751 751 754 753 754 760 760 756 756 759 763 766 765 768 769 766 768 772 769 760 758 763 763 765 765 763 770 773 766 756 758 771 764 745 742 740 737 742 744 744 749 749 747 747 746 746 747 750 753
790 789 787 785 784 782 780 779 780 780 777 776 777 777 778 776 776 778 772 765 756 745 747 750 749 750 749 748 749 750 754 747 741 743 743 744 743 744 751 751 752 753 748 754 765 760 755 760 762 763 766 767 768 768 762 764 772 768 755 756 760 759 763 763 764 769 763 757 759 757 760 765 758 745 735 735 742 743 745 749 748 746 746 746 746 747 749 753
788 787 786 784 783 783 782 781 780 778 776 776 776 777 777 774 776 774 770 770 758 743 744 747 747 748 746 747 748 746 746 743 744 745 741 743 743 745 752 749 749 752 748 757 767 756 752 760 763 763 767 767 764 761 757 762 769 761 753 757 757 756 760 758 761 764 757 761 768 757 754 768 763 740 732 737 742 747 750 749 749 747 745 745 746 748 751 754
786 785 784 783 781 781 781 781 780 778 777 776 776 777 774 775 776 769 768 770 754 741 745 745 746 747 744 746 747 745 743 742 745 744 741 744 743 744 750 746 744 748 748 753 756 751 751 755 755 758 763 762 757 754 752 759 763 755 754 758 757 757 758 757 760 757 759 773 773 754 751 766 760 735 735 747 747 751 755 749 748 747 745 746 747 750 754 756
784 783 782 782 781 781 781 780 778 776 776 776 776 775 774 775 771 768 773 768 750 744 745 743 746 747 743 743 742 742 743 742 741 742 742 744 743 744 745 743 741 745 749 751 748 748 751 752 751 753 755 752 750 749 750 755 756 754 757 757 758 759 757 759 758 753 767 778 764 748 747 760 761 742 743 758 755 754 756 751 749 748 748 752 753 754 756 757
782 781 781 781 781 781 780 778 775 775 776 775 775 774 773 770 764 768 772 759 748 747 745 745 747 745 744 745 743 740 740 740 738 741 745 744 745 747 746 747 748 749 754 756 752 749 752 755 753 750 748 748 750 751 752 752 753 757 759 756 760 763 761 765 761 762 778 777 755 744 744 755 763 752 750 758 755 753 755 753 750 749 752 758 760 759 759 759
780 779 779 779 780 780 778 775 774 775 775 774 775 772 769 769 767 766 759 751 753 752 747 750 749 745 746 745 743 740 737 738 737 737 741 742 745 747 745 747 749 755 761 758 754 753 753 752 748 747 747 748 752 754 755 756 756 759 759 759 766 769 773 777 772 772 775 765 750 746 749 755 755 753 753 754 756 756 754 752 749 748 754 759 760 761 761 760
778 777 776 776 776 776 775 774 774 775 773 774 774 767 765 770 769 761 751 749 757 755 750 753 750 746 747 742 739 737 734 736 735 735 735 736 742 742 739 737 737 746 754 752 753 757 756 750 744 747 748 745 749 752 756 758 757 759 758 760 765 770 781 786 776 770 766 757 749 745 754 758 749 751 756 754 757 757 752 752 748 746 753 757 757 758 760 761
774 773 773 773 773 772 772 773 773 773 773 774 770 766 770 772 764 758 754 751 754 754 751 752 750 746 744 739 738 735 735 735 733 734 735 735 741 742 739 737 734 735 741 748 751 752 758 756 745 745 744 741 745 745 744 745 748 751 746 747 755 759 770 777 768 764 762 759 756 755 760 755 748 757 759 754 758 756 752 753 750 750 753 756 757 758 759 761
771 770 770 770 770 769 769 771 772 772 773 771 765 766 771 767 757 756 757 753 754 756 751 748 749 748 741 737 737 736 737 738 733 734 736 735 739 738 736 736 734 732 738 749 751 746 753 751 734 733 735 734 740 740 736 740 746 744 737 744 752 745 747 760 763 761 760 760 760 761 755 742 746 757 754 754 759 756 756 756 755 758 758 758 761 760 760 761
769 769 769 769 769 768 768 769 770 772 772 767 764 765 764 759 756 757 759 758 759 759 755 748 746 747 742 737 737 737 737 737 735 735 735 733 732 731 729 729 729 730 733 741 747 746 752 747 730 732 737 731 733 734 732 741 746 743 744 747 742 731 734 753 765 763 764 766 759 753 748 743 751 757 751 756 761 759 762 762 763 765 762 762 764 763 763 763
770 769 768 769 769 768 767 768 769 772 769 763 764 764 759 757 759 759 760 761 760 760 758 753 749 749 747 741 738 737 736 736 736 736 734 733 732 728 727 726 725 727 727 731 738 740 745 747 733 732 739 733 730 732 730 731 736 743 749 740 730 734 737 745 761 765 767 770 758 748 750 749 755 760 756 757 763 766 767 766 768 769 765 767 767 766 767 765
770 768 767 768 768 768 767 768 769 769 766 763 764 764 760 759 761 760 761 762 761 761 759 756 753 751 750 747 741 737 737 738 736 735 734 735 734 730 727 727 726 726 723 726 735 736 739 748 739 728 734 733 730 737 739 733 731 736 740 730 732 751 752 746 759 766 766 769 760 750 748 745 749 760 762 760 765 771 770 769 772 771 768 770 769 769 769 767
770 766 765 767 768 768 767 769 769 766 763 762 762 761 761 761 761 762 762 761 762 761 759 756 755 753 751 749 745 741 741 740 736 735 736 735 737 734 728 728 728 727 725 725 732 735 737 749 747 731 729 733 733 739 743 740 735 735 737 732 732 746 750 745 747 750 755 763 761 755 753 752 753 757 761 764 767 770 770 771 773 772 771 771 770 771 769 768
768 763 764 768 768 768 768 768 766 762 761 761 759 759 762 762 761 761 761 762 761 760 758 757 756 755 753 748 746 744 744 742 737 736 735 732 736 739 731 729 730 729 729 728 729 733 736 748 750 737 731 736 738 737 736 736 737 738 743 741 738 738 739 741 740 737 742 752 757 758 761 765 763 757 759 766 769 768 768 771 774 774 773 772 771 771 769 768
765 761 764 769 768 768 768 766 763 761 759 760 760 761 763 763 762 760 760 761 761 758 758 759 758 756 755 751 748 746 745 743 737 736 736 731 734 741 737 735 734 731 733 734 732 733 738 746 748 742 738 739 736 732 732 733 732 734 737 736 735 736 738 748 752 741 736 743 748 751 760 772 770 762 763 768 768 768 768 772 776 776 776 775 772 771 770 769
762 760 765 768 767 769 767 762 762 763 760 760 762 763 765 766 764 761 760 760 761 759 758 760 759 757 756 753 750 748 747 744 737 737 739 734 735 741 741 740 738 732 733 735 733 731 735 740 744 742 737 734 735 735 735 736 732 732 733 729 728 730 734 749 754 743 737 741 741 742 755 774 775 766 768 771 770 770 770 773 776 776 776 777 775 774 772 772
758 761 766 769 768 768 766 761 761 763 760 762 764 764 765 766 764 762 761 760 760 759 759 760 758 757 755 753 752 750 748 746 740 738 739 737 738 741 739 739 741 737 733 734 733 734 738 741 744 743 735 730 734 734 734 736 734 734 734 731 733 732 731 739 741 740 744 745 743 745 756 773 778 772 773 776 774 774 774 774 775 777 778 779 778 779 778 779
757 762 766 768 769 768 764 760 760 761 762 765 765 763 764 765 764 762 761 760 759 759 761 760 757 756 754 753 754 751 749 750 746 740 740 739 740 742 739 738 741 740 739 740 736 736 742 742 741 745 748 747 747 744 742 741 737 736 736 737 739 735 733 737 736 739 748 746 742 749 760 774 779 775 776 780 779 781 781 780 780 781 784 784 783 783 783 783
758 763 764 766 768 767 763 761 761 762 765 767 766 764 763 763 764 763 761 761 760 759 761 759 756 756 754 752 754 750 747 751 750 743 742 741 740 742 741 739 740 741 743 745 740 736 740 742 739 744 753 756 753 749 745 739 735 738 741 742 744 739 738 741 738 742 749 743 738 743 758 776 779 774 779 782 783 786 787 785 786 785 786 786 785 786 786 785
757 760 763 765 766 764 763 764 763 762 764 766 767 765 763 762 762 763 762 761 760 759 760 758 756 757 755 753 754 752 746 747 749 745 744 743 743 745 743 741 743 745 746 747 743 739 741 743 743 746 749 747 743 741 736 731 733 740 743 745 747 746 745 742 741 747 748 742 739 738 750 772 777 774 782 785 784 789 790 788 789 787 788 788 787 788 789 788
755 756 760 763 764 763 763 763 763 762 764 765 766 766 765 762 761 762 762 761 760 760 760 758 756 757 758 757 756 755 750 747 748 749 748 746 746 748 746 742 744 749 749 745 743 743 745 747 749 751 752 749 743 740 736 731 734 739 743 748 750 749 749 745 746 753 750 746 750 744 744 760 769 773 782 785 785 790 792 793 794 791 791 790 790 791 791 790
757 757 758 761 761 761 762 762 762 764 765 765 766 766 765 762 761 763 763 760 759 759 759 761 758 756 758 758 757 757 754 751 751 752 751 748 748 750 750 747 750 755 752 746 746 747 746 747 751 752 753 753 748 743 740 738 741 745 747 752 752 750 751 750 752 756 751 750 757 752 748 759 771 779 785 785 789 794 795 797 797 796 795 794 793 794 794 795
758 758 761 762 761 760 763 765 765 764 765 766 765 766 765 763 764 764 762 761 761 759 759 762 761 757 757 757 756 758 759 758 759 758 755 753 752 751 752 754 758 761 757 754 757 755 749 751 754 752 754 759 756 749 745 744 747 753 753 754 754 753 754 754 755 754 750 749 753 755 763 777 785 790 792 791 794 796 797 798 799 799 800 799 799 799 799 800
757 757 760 762 762 763 766 767 765 763 764 765 765 766 766 764 765 765 762 762 765 762 760 762 761 758 758 756 755 759 762 762 764 763 760 758 755 752 754 757 759 760 762 766 769 766 759 758 760 756 757 765 766 760 753 747 749 757 761 760 757 755 757 759 760 759 755 754 760 766 777 790 794 795 797 798 798 798 800 802 803 804 805 804 803 804 804 806
759 758 759 758 762 767 767 766 765 761 761 764 764 766 767 765 765 766 763 761 763 763 762 763 762 759 758 758 758 760 761 761 762 761 759 759 757 754 755 757 758 762 766 769 773 772 765 763 766 761 759 769 774 769 762 754 752 759 770 775 770 765 767 770 773 773 765 763 770 773 777 790 798 799 800 802 802 803 805 807 809 810 810 808 808 809 810 810
761 760 759 756 762 768 766 763 764 761 762 768 768 768 769 766 765 766 766 762 761 762 763 763 764 761 757 758 761 761 761 761 761 759 757 758 756 755 756 756 757 762 767 769 772 772 766 765 767 759 755 766 774 773 770 765 758 764 780 789 785 777 774 775 779 780 773 769 772 770 774 791 799 798 800 805 807 809 810 811 813 814 813 813 812 813 814 813
Wind_Speed
9 9 10 9 9 9 8 8 9 9 9 9 9 9 9 9 9 9 9 8 8 8 8 8 9 10 10 10 11 13 15 14 11 9 9 5 2 3 5 5 6 12 15 15 18 17 14 12 12 12 10 7 5 4 8 7 5 5 5 6 6 7 4 1 0 3 3 3 5 8 8 9 10 8 8 7 4 3 3 2 2 3 3 4 8 13 18 18
9 9 9 9 9 9 8 8 9 9 9 9 9 9 9 9 9 9 9 9 9 9 9 9 9 11 10 9 11 13 15 13 13 10 8 4 2 5 4 7 8 14 18 17 20 18 15 13 14 13 9 6 5 6 8 7 6 7 5 6 7 4 3 5 3 3 3 5 7 8 8 9 10 8 9 8 6 5 3 3 5 5 5 6 11 16 17 17
9 9 9 9 9 9 8 8 9 9 9 9 9 9 9 9 9 9 10 9 10 9 9 10 10 10 9 8 10 12 13 12 10 4 6 2 6 10 5 8 11 17 18 16 19 17 13 13 15 13 8 6 5 6 8 7 7 7 6 7 6 1 3 2 1 2 3 6 8 8 9 9 8 7 7 9 10 6 1 3 2 6 7 8 12 16 17 17
9 9 9 9 9 9 9 9 9 9 9 9 9 9 9 9 9 9 9 9 9 9 9 10 10 10 8 7 8 10 10 10 3 6 2 6 10 11 6 10 14 19 15 11 14 12 9 12 14 12 7 6 5 6 8 7 7 6 7 8 2 2 2 1 1 2 4 7 8 9 9 9 8 8 8 9 9 3 4 7 3 3 10 11 12 16 17 17
9 9 9 9 9 9 9 9 9 9 9 9 9 9 9 9 9 10 9 9 9 9 10 10 11 10 7 6 6 7 7 5 2 4 5 10 11 8 6 13 17 18 12 10 12 10 10 12 12 9 7 6 7 7 8 9 7 5 8 11 4 2 5 1 1 4 6 8 9 9 9 9 9 9 9 8 8 4 6 7 4 6 12 13 15 17 16 15
9 9 9 9 9 10 9 9 9 9 9 9 10 10 9 9 9 10 9 9 9 9 10 10 11 11 7 5 4 5 7 2 3 3 9 10 7 1 9 17 20 16 11 12 13 11 11 12 10 9 7 6 8 8 7 10 9 7 8 10 8 7 7 4 6 8 7 9 9 8 9 9 10 10 7 8 9 7 7 4 2 9 13 14 16 16 15 15
9 9 9 10 10 10 10 10 9 9 9 10 10 10 10 10 9 9 9 10 9 10 10 10 10 10 7 4 3 6 8 4 3 6 10 6 0 7 15 20 20 14 12 14 13 12 11 12 11 8 7 6 8 9 7 10 11 10 8 6 7 8 8 8 8 8 8 9 9 8 9 10 11 9 8 10 9 6 5 1 6 11 13 14 15 15 16 15
9 9 10 10 10 10 10 10 10 9 10 10 11 11 11 11 11 9 9 10 10 10 10 10 10 9 7 4 5 6 6 0 4 6 7 2 8 14 18 20 17 12 12 13 12 11 10 11 10 7 8 6 5 8 8 9 11 12 11 6 6 7 7 8 8 9 9 9 8 8 11 11 9 9 11 12 5 3 0 5 11 13 13 14 14 15 16 15
9 10 9 10 10 11 11 11 11 10 10 11 11 12 12 12 12 10 10 10 10 11 10 10 10 7 5 4 7 6 0 5 5 7 6 8 14 16 16 17 16 11 11 11 9 10 9 9 9 6 6 3 4 8 9 9 7 9 12 8 7 8 7 7 8 10 9 7 7 9 12 10 5 7 9 5 2 2 4 9 12 13 14 13 13 14 14 15
10 10 10 10 10 10 11 11 11 11 11 12 12 13 13 13 13 11 11 12 11 11 10 10 8 5 4 5 7 4 4 6 3 6 7 9 15 14 12 15 17 11 8 9 7 9 7 5 6 4 4 2 5 6 9 9 2 3 9 8 8 9 7 7 7 9 9 7 8 10 12 8 3 6 5 4 5 3 7 10 11 12 12 12 12 12 13 13
11 10 10 10 10 11 12 12 12 12 12 13 13 13 13 13 14 12 13 14 13 12 10 9 6 2 4 5 6 3 4 4 4 5 5 9 13 11 10 15 15 10 7 8 7 8 5 3 5 5 2 3 6 6 9 7 4 3 7 7 8 8 7 7 7 8 7 7 8 9 11 9 5 8 6 4 3 4 7 9 11 11 11 12 12 11 11 11
11 11 11 10 11 11 12 12 12 12 13 13 13 14 14 13 13 14 15 15 14 11 9 7 2 1 5 6 7 4 3 4 6 6 6 10 11 8 9 12 11 8 6 6 5 6 5 3 8 8 1 3 6 5 6 6 4 6 6 7 7 8 8 8 7 6 6 6 5 5 9 9 9 11 5 5 2 5 7 9 10 10 10 11 11 10 10 10
12 11 11 11 11 11 12 13 12 13 14 14 14 14 14 14 14 14 15 15 12 9 7 4 1 2 5 5 3 4 4 5 6 7 8 10 9 8 8 7 8 7 5 3 3 5 6 4 9 8 2 4 5 3 2 5 6 6 6 7 5 6 7 6 4 4 6 4 2 5 7 6 10 9 5 6 4 6 8 9 9 9 9 10 10 10 9 11
11 11 11 11 11 11 12 13 13 14 14 14 14 14 15 15 13 12 13 13 9 7 5 3 2 4 5 5 2 5 7 6 7 9 10 11 10 8 7 6 8 8 5 3 2 3 5 5 8 6 3 5 1 3 4 6 6 5 4 5 5 6 3 7 3 4 5 2 3 8 6 4 7 8 7 5 6 8 8 9 9 8 9 9 10 10 10 11
11 11 11 12 12 12 12 13 14 14 14 15 14 15 15 12 9 9 9 8 5 5 4 4 3 5 5 7 4 3 7 8 10 13 13 13 12 9 8 9 8 8 6 5 3 2 5 7 7 5 5 4 2 5 7 5 6 5 4 5 5 5 3 7 4 3 2 3 4 8 6 5 5 8 8 5 6 8 8 9 10 9 10 9 10 11 10 10
12 12 12 12 12 13 13 13 14 14 15 15 15 16 12 6 5 6 4 1 1 5 6 3 4 6 6 3 5 3 4 7 6 9 13 14 14 9 8 10 9 9 7 6 4 3 6 9 6 4 5 5 6 7 5 5 6 6 6 5 4 4 3 5 6 3 2 0 5 6 5 4 3 7 8 6 6 7 8 10 11 10 11 10 9 10 9 10
12 12 13 13 13 13 13 14 14 14 15 15 16 13 5 2 2 3 4 4 4 5 5 3 2 5 5 0 4 3 5 7 4 6 9 11 12 9 10 10 9 10 9 7 6 4 8 9 4 3 5 6 7 6 5 7 7 6 6 5 4 4 4 2 5 6 3 4 4 5 6 6 3 4 7 6 6 7 7 9 10 10 10 10 10 10 10 10
12 13 13 13 13 14 14 14 14 14 15 15 13 7 2 1 1 2 3 4 4 4 4 2 2 5 4 3 2 1 6 6 4 4 6 7 9 11 11 9 10 12 10 8 7 7 7 7 5 5 6 6 6 7 8 5 4 5 6 5 5 5 6 4 3 4 2 6 6 6 7 8 9 6 6 6 6 7 7 8 9 10 11 10 10 10 10 10
13 13 13 14 14 14 14 14 14 14 15 14 8 2 1 1 1 2 3 4 4 4 2 3 6 4 1 3 1 2 4 2 2 4 6 8 10 12 10 9 12 12 9 7 8 9 6 5 6 7 7 9 10 11 11 3 2 2 3 4 5 4 5 4 2 1 2 7 8 9 9 8 9 7 6 6 5 6 7 7 8 10 11 11 11 11 11 11
13 14 13 14 14 14 15 15 14 14 16 12 5 2 3 2 3 4 5 7 8 8 8 4 7 9 6 1 1 1 4 4 5 5 8 10 13 13 10 10 11 10 9 7 8 8 7 6 7 9 10 12 13 13 11 4 1 2 3 5 6 6 5 3 3 4 3 6 8 10 11 10 9 8 5 6 5 6 8 9 10 11 12 11 12 12 12 11
13 14 14 14 14 15 15 15 15 15 13 6 2 4 2 3 3 1 1 7 10 11 12 10 10 13 9 3 0 1 2 5 7 6 8 11 14 12 10 12 11 9 10 9 7 6 6 8 9 11 10 8 9 11 8 5 5 6 6 6 7 8 6 3 4 5 3 5 9 10 12 11 11 11 6 6 6 7 9 11 12 13 13 12 13 14 13 10
14 14 14 14 14 15 15 14 15 12 6 1 3 5 2 4 4 4 4 6 7 9 11 11 11 12 10 9 7 3 3 6 10 8 9 11 14 11 10 13 12 10 10 8 6 6 7 9 12 11 6 4 5 8 9 8 8 7 7 7 7 6 4 3 5 5 3 4 7 9 10 10 11 12 8 6 8 8 8 10 12 13 13 13 13 13 12 11
14 14 14 14 14 16 15 14 13 6 0 1 5 4 1 3 4 4 4 6 6 6 8 8 9 9 8 10 9 8 9 10 11 11 13 13 12 11 10 13 14 11 11 10 8 7 7 7 11 8 5 6 7 7 9 8 7 8 7 7 6 4 3 4 5 5 4 5 7 7 7 8 9 11 11 10 9 6 7 10 11 12 13 13 12 11 11 12
14 14 14 14 15 15 14 13 9 2 2 6 7 4 1 2 5 5 5 6 5 3 4 4 5 6 4 3 6 12 12 10 11 11 16 16 11 9 11 12 14 12 10 13 13 11 7 2 4 8 8 10 9 8 10 7 7 9 9 9 7 5 5 6 4 3 5 8 9 8 7 8 10 12 12 9 7 7 7 9 11 12 12 13 12 11 11 11
13 13 14 14 15 14 13 10 3 2 4 8 6 3 1 3 5 5 5 5 3 3 3 4 3 3 3 2 6 10 8 9 12 11 15 18 13 9 9 10 10 11 12 15 13 12 8 4 5 8 10 12 11 9 11 9 7 8 10 11 10 10 9 10 10 6 7 8 8 8 7 7 9 12 11 8 8 9 8 9 11 12 13 13 12 11 10 9
13 13 13 13 15 14 9 3 1 2 7 4 4 4 1 6 6 4 4 3 2 3 4 5 4 4 4 4 7 7 6 6 8 9 12 17 16 10 8 7 7 10 12 12 9 7 6 6 7 9 9 11 11 9 10 10 8 7 5 8 11 12 12 12 9 6 6 4 5 7 8 6 6 8 10 9 9 10 8 8 9 10 12 13 12 11 10 9
13 13 13 12 13 13 6 2 4 6 6 2 5 2 4 8 5 4 4 4 3 2 3 3 2 3 1 2 6 6 3 2 4 9 11 14 15 11 9 9 7 8 7 6 6 5 7 8 8 9 8 9 9 7 9 10 9 5 2 3 9 10 11 10 9 8 7 3 4 8 8 7 6 7 8 8 9 8 7 6 7 8 11 12 12 10 9 8
13 13 13 12 12 10 6 7 8 6 2 3 3 4 7 6 3 4 4 3 2 2 2 3 3 2 0 1 8 8 3 3 1 7 10 13 14 10 10 11 10 10 9 7 6 5 9 12 11 13 11 8 8 7 7 10 10 5 2 2 6 6 8 9 8 8 6 4 6 9 9 7 7 6 6 6 7 6 4 3 4 6 9 12 12 10 7 6
14 13 12 12 12 9 5 8 9 5 1 0 2 6 6 3 4 4 4 3 2 2 1 2 3 3 1 1 9 9 6 5 2 4 7 11 12 8 7 10 12 12 12 12 9 4 6 7 9 12 11 8 10 11 9 11 9 4 1 4 5 4 6 7 7 7 5 5 8 8 10 8 7 6 5 4 4 3 2 1 2 4 7 9 10 9 7 7
14 13 12 12 10 6 3 8 11 8 3 3 4 6 4 5 4 4 4 2 1 3 1 1 2 2 5 4 5 8 7 6 2 5 7 9 12 9 4 5 10 10 10 12 11 3 6 2 3 8 10 8 9 9 9 11 9 2 3 6 5 5 5 5 6 6 5 7 9 9 10 8 8 4 2 2 2 1 1 0 3 5 7 7 6 7 8 8
15 14 12 10 7 4 4 4 5 6 4 4 5 4 5 5 3 4 3 1 1 1 2 1 1 2 7 7 2 4 5 6 6 7 7 8 11 11 6 5 7 7 7 9 10 6 7 6 4 6 8 6 6 6 6 8 8 5 6 7 5 6 5 5 6 5 7 8 5 6 8 9 9 2 5 5 4 2 2 0 2 5 9 8 7 7 8 8
16 15 13 12 9 8 9 3 3 3 3 6 4 4 5 4 4 4 2 1 2 1 2 2 3 5 8 7 4 3 3 5 8 9 8 9 10 10 11 9 7 8 8 8 9 8 8 9 8 7 8 7 7 6 6 6 7 8 7 7 7 6 6 7 7 6 8 6 4 4 6 8 7 2 5 5 5 4 3 2 2 5 9 9 8 9 8 7
18 17 16 13 12 14 14 9 6 8 7 6 4 5 5 4 3 2 1 1 1 3 3 4 6 8 10 7 3 2 3 4 8 9 8 10 11 11 14 13 12 11 8 8 10 7 7 9 11 10 8 9 11 7 7 8 8 9 8 7 8 7 7 8 8 7 8 6 4 4 4 7 6 3 7 6 6 5 5 4 1 5 8 8 9 9 8 8
20 18 14 11 11 15 14 10 9 8 5 5 6 5 5 5 1 1 1 0 3 3 4 5 8 9 8 5 1 3 3 4 7 9 8 9 10 9 12 13 15 13 7 7 8 7 8 8 10 13 9 10 14 11 8 7 8 10 9 8 8 7 7 7 6 7 7 4 4 5 4 6 6 3 6 7 6 6 6 6 4 6 8 7 7 8 8 8
17 11 9 7 8 10 11 11 9 6 4 5 6 6 6 4 1 1 0 2 3 4 6 7 8 8 5 4 1 2 2 1 6 8 8 9 9 9 10 11 15 14 8 7 6 6 10 6 7 11 7 10 15 14 12 9 7 8 8 8 8 7 7 4 2 1 3 4 4 5 4 2 2 4 5 6 6 7 8 8 7 6 7 6 6 6 6 6
10 5 3 4 4 4 6 11 10 7 5 5 6 6 4 1 1 1 1 3 3 5 9 7 4 5 3 3 4 3 0 1 5 7 7 9 9 10 11 9 13 16 11 7 5 5 8 5 6 9 7 10 12 12 14 12 6 5 7 8 6 5 6 4 2 2 1 6 3 4 5 2 5 5 5 5 5 9 10 9 8 6 6 6 5 5 5 5
7 4 1 3 2 2 5 10 11 8 6 5 6 4 1 1 2 2 2 2 2 4 7 4 0 2 3 2 3 2 1 2 5 6 7 8 7 8 10 9 11 16 14 10 5 5 6 4 6 8 9 10 5 5 12 13 8 5 6 7 5 3 6 5 4 4 4 7 4 4 7 5 5 3 4 4 5 8 8 8 7 6 6 6 6 7 7 6
7 5 2 5 2 3 7 10 10 7 5 5 6 3 1 0 1 1 1 2 2 3 5 3 1 2 2 2 1 2 4 3 5 5 7 7 4 3 8 8 9 14 16 12 6 3 5 5 6 6 7 9 7 5 8 9 10 8 4 4 4 5 6 6 6 5 6 7 5 5 7 5 4 3 5 5 5 7 7 8 7 6 7 7 6 7 8 8
6 4 3 5 2 6 9 8 7 5 4 5 5 3 1 1 2 1 1 2 3 3 4 2 1 2 2 4 4 3 4 4 2 4 6 6 3 1 3 4 7 11 12 11 7 4 4 6 4 5 5 7 8 8 8 8 10 9 6 6 5 4 5 5 5 6 6 6 5 5 5 3 1 3 5 5 7 7 7 7 6 6 7 7 6 6 7 8
5 4 3 4 1 7 6 4 6 5 4 3 2 1 1 0 1 2 2 2 3 3 3 2 2 3 3 5 5 3 3 5 4 4 4 5 5 2 1 1 4 6 7 10 9 5 4 5 4 5 6 7 7 6 7 7 8 9 8 8 7 5 4 4 5 5 5 5 5 5 5 2 4 4 4 6 6 6 7 7 6 5 5 5 6 6 5 6
4 4 3 2 3 6 2 5 4 2 3 2 1 0 0 2 2 2 3 3 4 4 3 5 5 5 5 5 3 2 4 5 5 4 4 4 4 2 2 4 2 2 5 8 9 7 5 5 6 5 6 7 5 3 1 3 4 6 7 8 8 7 6 6 6 6 6 5 4 5 3 3 4 2 3 5 5 5 8 8 5 5 4 4 5 5 5 5
4 3 3 2 5 3 4 4 2 1 3 0 1 1 1 2 3 3 3 4 5 5 4 5 6 6 6 5 4 4 5 5 4 3 4 3 0 3 4 5 5 3 3 6 7 5 2 4 7 7 6 4 6 6 2 2 3 5 5 6 7 7 7 8 7 5 6 5 4 5 3 3 3 2 5 6 5 6 8 8 7 6 5 6 6 6 5 5
4 2 4 4 4 2 5 3 2 2 1 2 2 1 0 2 3 2 2 3 4 4 3 4 5 5 4 3 4 5 4 5 5 3 3 2 3 6 7 6 2 3 3 4 4 3 2 4 7 8 6 3 5 5 2 1 3 6 5 2 4 5 5 5 4 1 3 6 5 6 5 3 4 4 6 6 6 7 7 7 8 7 6 6 7 7 6 7
4 3 4 5 2 4 5 2 2 1 2 2 1 1 2 2 3 3 2 2 2 2 3 4 3 4 4 3 5 6 5 4 4 1 2 2 3 7 9 7 3 1 1 3 2 4 5 6 7 7 7 6 6 6 5 5 5 4 3 1 2 4 4 4 3 3 5 7 6 6 3 4 4 5 8 8 8 8 7 7 8 7 7 6 7 8 7 6
4 3 3 4 2 4 2 1 1 0 2 1 0 1 1 3 1 2 2 1 1 2 3 2 3 4 5 5 6 7 5 4 4 1 1 1 3 7 9 9 6 4 4 8 6 3 5 5 6 8 8 9 9 8 6 6 5 3 2 3 0 3 5 5 5 6 7 6 7 7 2 6 7 8 10 9 9 9 8 8 8 7 7 7 7 7 7 6
4 3 3 4 3 2 1 1 2 1 1 1 1 1 1 2 4 1 2 2 1 2 2 2 4 3 4 5 6 6 4 4 5 3 1 1 2 5 7 7 8 10 10 8 6 3 4 3 3 4 4 4 4 2 1 3 7 6 5 5 2 1 2 5 5 5 6 5 6 4 6 11 10 10 11 9 9 9 8 8 7 7 7 7 7 7 7 8
3 2 3 3 3 2 2 2 1 1 1 1 0 1 2 1 3 3 2 1 1 2 2 1 3 2 2 4 5 5 4 3 4 2 2 3 2 3 4 3 8 14 12 6 4 3 5 5 3 2 3 4 4 4 3 2 6 7 6 5 3 2 2 5 4 2 5 6 5 4 10 13 11 11 11 9 9 8 7 7 7 7 6 6 8 9 9 10
1 1 2 1 1 3 2 2 1 1 1 0 0 1 1 1 2 2 1 2 1 2 2 1 2 3 3 4 3 3 4 4 2 1 2 3 3 2 2 1 7 14 12 6 6 4 5 5 3 2 3 6 5 4 4 4 6 7 6 6 4 3 1 2 1 2 4 3 3 5 9 11 11 10 9 9 9 8 8 8 7 7 7 7 9 10 11 11
0 2 2 2 1 2 3 3 1 1 1 0 0 1 1 2 3 2 1 1 2 1 2 1 3 4 3 3 3 2 3 3 1 3 4 5 5 3 1 1 4 9 10 7 7 6 3 2 4 5 5 6 6 4 3 6 9 9 8 7 6 6 6 5 4 3 3 4 6 9 13 12 9 8 8 9 9 8 8 8 8 9 8 8 10 12 12 12
1 1 2 1 2 3 3 3 2 3 2 1 1 2 1 1 3 2 1 1 1 1 2 2 4 5 3 3 2 3 5 5 3 3 5 4 4 4 2 2 2 6 7 5 5 7 4 2 3 3 3 4 6 5 2 5 9 10 9 8 6 6 7 6 5 4 3 6 8 10 12 9 5 7 9 8 8 9 9 9 9 9 9 9 11 13 12 12
2 2 0 3 4 2 2 3 2 2 2 1 0 2 1 1 3 2 0 1 2 3 3 4 5 4 1 1 1 4 6 7 6 5 5 4 4 3 3 2 4 5 5 4 2 4 4 1 2 3 4 2 2 2 1 3 8 11 10 9 6 4 5 5 5 3 2 4 8 8 7 6 5 8 9 9 10 10 11 10 10 9 10 10 12 13 12 12
1 0 2 2 2 2 2 3 2 3 2 2 1 2 2 2 3 2 2 1 1 1 3 4 5 4 3 2 2 6 9 9 8 7 5 4 4 3 2 2 3 2 2 2 1 1 2 2 3 4 5 4 4 3 0 2 5 6 6 7 6 3 3 4 4 4 5 1 5 4 4 7 9 9 10 11 11 11 10 10 9 9 11 11 12 12 12 12
Wind_Direction
352 350 350 351 351 354 353 353 352 348 345 345 345 342 340 338 338 336 334 332 331 332 334 338 334 333 338 340 333 325 326 320 303 274 248 242 197 255 258 223 205 181 164 157 161 161 161 170 164 167 179 176 201 173 171 199 193 205 221 230 234 238 248 83 351 5 354 354 12 348 357 339 331 352 346 327 272 305 314 218 156 164 108 49 66 96 124 132
352 350 348 348 348 350 351 351 350 347 344 344 344 342 340 335 336 332 329 328 326 327 332 336 332 334 338 338 331 325 328 309 288 272 228 192 27 331 280 208 197 174 164 164 171 170 169 172 166 174 186 175 185 165 168 185 193 217 225 231 240 254 14 45 24 25 351 329 342 332 343 330 323 341 336 327 321 321 285 182 168 171 123 94 100 108 117 118
352 350 348 345 344 345 348 351 348 346 342 341 341 339 337 333 333 328 327 326 324 326 328 331 328 333 341 338 329 327 325 299 277 235 183 196 333 326 289 200 184 169 169 176 178 179 179 171 168 178 189 186 183 177 185 181 191 222 233 238 246 305 24 51 20 19 348 326 322 321 331 313 316 334 320 320 317 305 7 72 183 180 136 120 117 120 123 131
351 348 348 343 340 342 345 348 345 342 339 337 334 332 331 329 328 323 324 323 323 327 326 328 326 332 343 336 330 326 308 280 251 121 151 303 316 315 267 194 174 168 174 186 183 185 181 167 173 184 193 193 176 186 195 175 187 214 224 246 299 27 274 154 157 306 323 315 311 314 312 301 322 325 299 309 306 288 60 37 2 148 136 136 137 142 147 152
349 348 347 342 339 340 342 344 343 340 336 332 328 328 326 322 321 319 317 317 319 323 324 325 325 331 339 332 331 314 280 260 104 99 304 310 312 303 222 179 165 168 178 181 175 175 173 168 176 186 200 195 171 190 200 185 206 231 226 248 275 284 265 163 225 290 310 300 298 304 303 311 323 305 291 301 296 314 22 26 30 118 138 151 154 156 161 160
346 347 345 343 340 337 340 341 340 337 332 329 324 323 324 319 317 314 313 313 313 315 319 323 326 332 337 333 318 275 263 290 56 338 316 317 315 286 170 163 159 168 178 170 168 172 172 172 178 186 202 202 186 196 198 186 209 242 231 240 246 251 263 267 279 286 294 288 292 302 306 313 303 294 302 298 288 316 354 360 92 132 145 159 162 161 165 163
345 344 343 343 340 336 338 338 338 336 329 325 320 317 320 319 315 312 310 308 308 311 311 316 323 330 342 330 274 237 254 301 41 336 323 317 341 136 151 154 156 166 173 167 166 173 170 177 189 191 201 204 198 198 190 188 206 238 246 240 245 253 260 267 278 278 281 284 292 299 298 295 289 297 308 292 294 328 340 267 142 139 146 159 167 166 168 166
344 342 341 340 338 337 336 337 336 331 326 322 318 315 314 315 314 310 306 303 305 306 305 311 318 333 353 323 273 248 252 331 69 356 342 110 132 141 147 151 160 166 173 174 167 176 176 186 196 196 210 205 195 194 182 197 210 232 251 253 252 258 257 261 266 269 277 280 285 288 285 283 288 305 296 288 310 9 18 148 140 143 149 161 172 169 169 170
341 341 340 337 337 337 333 335 331 327 325 321 317 314 311 311 310 307 303 302 302 302 302 307 313 339 355 298 275 275 202 107 90 28 45 129 139 144 148 156 171 171 175 179 176 187 185 196 199 198 240 215 182 193 183 207 213 219 242 252 257 263 262 262 263 269 273 271 279 280 277 279 298 311 287 280 43 81 141 142 142 148 156 165 172 170 170 173
339 338 337 336 336 334 332 331 328 325 322 319 318 314 311 308 306 306 301 299 297 297 299 301 314 350 327 273 267 274 98 112 126 68 75 131 142 144 154 165 172 176 176 177 191 199 194 214 200 197 277 233 190 192 186 214 250 210 241 256 262 268 269 267 267 270 272 266 262 264 273 278 297 291 266 107 90 154 151 147 149 152 162 167 167 168 172 177
335 335 334 335 334 331 330 328 326 324 321 320 318 314 313 307 304 304 297 295 293 292 294 293 304 345 289 265 268 276 99 127 161 116 100 137 145 145 153 165 172 179 173 173 195 199 203 228 192 196 250 176 180 186 191 218 284 262 250 259 253 258 258 250 254 260 265 261 250 253 270 269 251 260 252 99 101 176 165 160 154 157 166 164 165 168 173 180
331 334 333 332 331 329 328 327 324 323 320 319 317 316 313 305 302 300 296 293 290 287 286 282 289 324 271 253 255 258 112 152 171 152 147 151 153 144 144 165 180 188 179 181 194 192 208 217 199 207 202 159 174 174 185 200 254 254 249 260 243 238 242 231 239 254 254 258 258 257 264 248 223 234 216 107 144 182 181 174 156 163 167 162 167 171 177 182
330 332 331 329 329 328 326 326 324 323 321 318 318 317 311 307 304 300 295 290 286 278 269 261 248 264 258 258 252 226 179 166 174 172 169 166 162 151 151 172 191 204 217 214 174 181 204 208 210 216 231 220 182 112 149 184 237 250 232 253 253 238 225 187 204 242 237 243 249 244 257 232 200 202 143 114 172 181 182 177 162 174 171 164 171 177 182 181
326 328 329 326 326 325 324 324 324 322 319 318 318 316 314 313 306 299 294 287 275 256 239 171 174 231 245 260 247 225 215 187 198 202 185 182 182 180 182 191 201 206 217 215 150 170 197 198 218 224 227 244 181 124 194 193 220 240 220 232 246 249 171 131 162 237 225 157 177 225 243 232 176 142 111 129 176 182 187 177 168 184 183 171 173 183 188 184
325 327 326 323 323 322 322 323 324 322 318 319 319 318 318 316 310 306 302 290 262 218 180 138 192 228 259 255 213 230 225 202 222 220 202 197 200 211 202 191 193 191 194 194 168 172 192 190 208 214 190 211 222 197 208 204 206 220 236 220 211 236 150 138 171 237 263 103 171 223 239 238 183 113 105 138 177 190 194 181 173 190 196 185 180 187 189 188
327 326 324 323 323 322 324 326 324 321 319 319 319 321 322 321 323 322 330 338 142 145 153 170 204 232 281 271 144 149 191 189 216 211 203 206 211 217 184 169 168 172 181 179 174 171 182 188 200 223 196 188 210 216 214 215 208 208 235 240 201 220 207 157 161 177 279 254 184 224 256 251 177 119 118 139 179 194 200 191 182 192 203 200 191 190 188 186
327 325 324 324 324 325 327 326 325 322 320 320 322 325 317 301 354 20 64 93 109 129 173 226 200 228 267 184 157 183 160 158 134 142 180 202 212 197 157 156 159 163 168 167 182 176 175 188 188 212 217 207 212 218 222 223 218 198 212 243 228 227 251 183 154 159 220 261 219 223 252 263 251 160 136 147 181 194 207 198 187 197 210 212 203 194 192 188
327 325 324 323 325 326 326 325 324 321 318 320 326 330 269 232 49 38 74 117 138 161 196 227 215 236 228 175 202 138 123 139 134 142 172 181 192 181 165 163 153 156 163 165 186 188 180 190 196 202 205 209 211 209 219 232 246 212 198 231 232 220 239 236 181 149 210 262 250 235 239 244 250 227 152 154 185 198 210 200 192 203 212 219 217 206 200 193
326 325 325 323 325 325 325 324 321 320 318 321 336 359 236 247 221 224 197 180 185 205 239 172 195 262 330 142 146 91 128 169 221 191 167 161 169 175 175 168 157 167 178 175 183 188 188 189 200 213 204 203 207 212 223 249 346 252 206 245 253 230 227 223 227 256 280 274 259 249 247 239 241 226 151 146 183 202 211 205 199 204 209 219 222 217 208 200
323 325 324 323 325 324 325 324 320 321 317 316 324 251 229 243 235 197 187 217 228 254 295 272 221 268 294 172 99 217 213 226 227 180 156 160 165 170 171 167 172 188 201 193 174 174 196 206 204 213 215 213 211 215 233 259 317 265 248 250 254 253 245 191 207 246 271 274 263 251 251 248 246 238 169 143 184 209 214 211 208 209 208 213 221 222 216 205
323 325 324 324 325 323 324 323 321 323 320 311 255 246 272 338 312 343 281 245 234 246 271 271 253 262 271 272 315 269 240 216 214 185 157 166 172 174 171 174 186 199 207 199 157 150 202 220 218 219 226 226 209 209 226 243 240 244 249 251 247 250 250 191 219 256 249 259 262 252 251 247 245 243 198 161 210 224 223 218 214 215 211 210 216 220 220 208
324 324 324 323 322 322 323 321 320 327 338 353 240 261 340 23 5 349 313 278 256 244 251 258 257 258 261 259 248 255 289 238 218 192 158 170 186 189 176 182 200 198 187 184 156 170 208 225 228 220 210 196 191 204 215 225 235 238 240 250 251 252 262 226 222 239 220 240 257 252 255 250 244 246 226 213 238 237 232 228 220 219 216 215 215 215 216 206
323 323 322 322 322 321 320 319 322 326 32 303 280 269 16 33 357 316 268 280 281 237 233 241 244 248 250 250 232 212 232 233 225 204 173 179 198 200 187 188 204 199 178 188 200 204 209 224 226 204 170 192 196 198 209 219 230 232 235 244 244 237 255 237 192 183 210 251 271 274 271 259 249 248 242 237 239 231 227 230 227 225 223 222 219 217 213 205
323 322 321 323 321 319 320 321 320 265 223 298 281 257 315 340 332 310 256 272 280 210 205 218 233 246 241 249 200 198 217 222 225 210 177 183 197 196 203 200 203 204 191 200 212 224 227 183 192 189 183 205 206 195 207 221 229 228 233 242 253 248 250 265 247 225 251 249 249 260 266 252 238 237 236 220 203 209 214 219 225 224 226 225 222 222 217 207
322 320 322 324 321 323 326 325 314 192 290 297 252 210 276 307 318 298 262 268 248 169 161 180 195 212 181 152 176 193 223 221 225 217 178 189 199 185 200 207 207 209 204 206 212 232 234 124 144 201 197 205 212 207 210 222 240 236 225 229 251 261 256 262 260 255 263 244 210 219 248 244 223 224 230 208 192 207 203 208 221 220 222 224 219 218 216 203
320 320 324 325 325 332 338 337 101 297 299 277 176 153 292 309 310 264 255 274 221 150 146 182 180 151 157 168 172 190 224 208 215 213 186 196 205 200 204 194 204 221 212 207 213 239 230 150 173 208 199 205 217 222 216 217 242 250 216 213 238 252 252 253 248 231 251 253 167 197 247 258 219 218 225 212 209 214 200 207 226 222 219 221 217 212 207 197
320 321 326 327 331 341 348 334 325 305 287 166 148 191 305 311 292 217 243 249 208 132 133 166 136 117 135 170 180 195 211 119 169 192 193 201 200 206 221 190 189 226 208 192 208 219 210 193 194 200 200 209 217 225 213 208 236 252 138 215 242 245 241 238 232 225 244 273 170 205 241 263 253 235 214 203 213 215 202 214 229 223 216 214 213 206 199 195
320 322 327 326 326 328 311 298 304 291 285 101 156 264 309 310 232 205 253 238 165 103 131 126 106 141 34 149 198 220 297 349 206 175 183 200 194 197 222 208 202 207 182 187 213 177 188 204 201 201 211 219 220 226 203 198 232 249 115 242 264 256 240 229 221 225 236 257 232 215 220 245 256 233 191 191 211 195 176 209 210 210 208 202 200 192 185 183
321 323 325 324 322 319 284 268 272 264 272 58 266 300 309 265 207 219 259 253 149 121 117 123 143 193 286 207 207 226 261 270 258 134 162 193 200 209 232 225 221 209 185 205 230 158 160 212 212 210 219 223 226 231 211 202 227 253 196 244 261 251 236 222 222 225 210 236 248 215 201 233 258 228 189 189 205 161 117 144 146 180 191 186 185 178 168 160
321 320 322 323 324 329 276 252 254 249 249 274 304 319 275 210 219 231 220 239 149 118 116 168 162 258 309 300 207 204 225 232 192 150 165 179 193 210 251 245 232 218 188 211 234 170 114 148 223 222 227 230 234 231 217 218 228 239 228 228 220 207 209 211 225 232 214 229 242 213 197 232 257 237 126 107 134 102 352 147 127 156 154 138 144 153 157 156
318 316 318 312 306 303 274 257 233 212 224 302 325 298 232 202 242 243 182 165 284 116 138 162 87 321 321 324 256 193 208 208 182 170 173 172 182 196 208 207 216 213 194 208 226 206 175 180 192 211 222 236 243 218 201 221 225 225 233 226 206 190 190 205 207 212 234 235 226 200 201 232 246 228 76 80 86 51 346 351 157 156 138 123 123 132 147 162
312 309 305 290 271 253 247 231 127 187 262 315 312 246 218 200 230 233 162 170 245 47 67 21 356 336 325 313 264 237 237 197 186 186 183 181 182 191 201 195 184 196 204 202 205 206 205 209 207 199 201 216 228 204 177 197 211 217 229 224 217 201 189 211 208 207 235 224 149 160 204 235 239 124 72 67 59 31 9 3 221 159 135 136 139 132 138 158
309 307 300 282 255 239 239 239 246 260 282 295 259 224 221 226 224 221 225 207 69 26 5 334 323 320 311 289 256 261 249 177 176 195 194 189 191 195 203 205 198 202 212 204 200 201 203 211 211 208 200 204 220 216 180 184 200 209 217 216 222 214 201 215 215 216 231 209 145 150 199 234 225 101 58 51 50 32 36 48 168 143 133 151 152 141 142 150
310 304 292 272 244 236 236 238 242 247 262 255 222 199 212 225 200 92 251 321 30 349 316 321 317 308 290 263 346 359 253 165 164 194 196 192 201 202 202 209 211 213 216 204 206 213 215 211 199 205 203 191 208 226 220 204 200 206 217 224 230 228 222 227 229 231 232 204 154 158 194 239 224 121 58 56 60 52 59 67 83 106 118 140 146 145 153 154
318 307 281 254 243 243 231 221 216 210 227 235 211 194 209 219 184 144 215 8 8 334 315 311 300 290 264 215 186 15 314 187 173 194 199 197 205 205 202 206 208 211 211 200 200 213 226 232 187 193 198 187 199 216 230 237 217 197 212 228 233 235 231 235 267 296 266 229 175 174 216 275 147 127 89 75 70 72 74 76 84 100 111 126 137 145 157 155
332 315 266 217 234 256 213 200 193 197 229 230 204 204 219 263 22 76 47 352 335 337 319 296 269 270 257 196 180 155 162 256 189 196 205 205 213 212 207 202 199 206 211 202 187 192 221 229 166 173 193 204 206 205 210 224 223 183 206 223 221 239 249 240 181 101 282 257 212 185 225 169 137 149 113 93 77 78 78 76 87 106 121 137 150 150 155 151
327 297 197 133 190 222 174 173 173 192 231 229 212 220 246 36 27 33 43 343 319 329 310 292 134 308 290 228 187 149 356 237 199 210 209 200 213 216 209 200 193 205 212 213 213 205 225 222 166 179 200 198 203 215 208 218 226 200 208 215 190 213 252 247 228 193 214 242 217 196 231 204 175 184 133 124 92 81 83 85 94 107 114 124 135 138 145 146
311 285 137 76 42 165 154 156 169 199 227 223 219 236 296 176 88 45 18 329 297 284 288 288 357 318 298 281 261 13 334 266 201 217 215 199 200 205 207 201 194 206 213 220 225 198 228 232 176 181 197 170 162 213 210 210 225 231 257 252 204 209 223 215 226 226 220 235 224 202 224 217 195 186 162 155 115 99 101 100 105 114 109 105 111 128 140 145
286 246 145 41 18 158 146 154 186 221 222 219 220 210 238 168 135 140 290 295 274 268 280 288 281 269 280 298 311 341 326 305 262 237 224 208 199 212 231 215 198 205 212 221 221 182 214 239 196 164 166 160 172 207 210 193 205 227 258 254 220 219 234 217 217 229 230 235 228 207 213 210 114 117 139 135 122 128 130 116 112 117 117 114 115 127 141 149
263 219 124 30 193 161 145 184 218 232 214 225 254 175 138 165 170 200 220 256 270 266 284 294 263 263 289 298 301 317 315 309 293 262 233 202 193 195 279 268 197 191 201 221 224 204 199 228 217 155 147 176 190 200 216 206 197 208 221 222 209 204 227 233 225 235 252 247 229 224 217 151 63 66 104 113 119 131 125 117 116 116 115 116 119 129 138 145
252 199 106 42 179 163 194 234 222 239 227 224 277 184 50 330 287 236 215 237 261 258 276 290 273 275 298 296 291 321 312 293 277 261 240 213 203 175 51 4 327 176 185 212 218 210 200 215 223 191 176 201 185 116 21 275 236 225 222 219 216 208 211 224 217 213 237 256 253 251 229 105 67 37 88 112 120 117 112 111 113 117 114 105 114 125 128 127
240 185 89 110 163 173 263 239 135 268 249 133 337 291 11 326 284 272 238 226 240 238 240 268 273 273 278 279 289 310 301 285 276 263 245 231 85 45 29 359 327 281 214 208 206 203 209 223 223 217 212 183 114 95 56 327 274 247 245 237 228 219 215 228 230 205 210 227 242 258 247 110 85 59 85 105 111 107 114 121 124 127 128 127 125 118 103 91
206 141 83 130 156 289 278 223 142 214 203 64 359 272 266 269 253 251 236 215 223 230 227 249 265 262 257 273 294 297 297 286 280 276 262 245 71 43 21 19 350 269 247 222 200 161 168 231 224 220 219 174 126 130 143 190 235 228 226 239 258 248 229 241 261 219 216 220 218 239 228 137 108 95 96 104 105 103 112 122 123 118 104 107 111 98 78 70
164 113 109 144 184 290 278 219 170 192 105 73 305 191 173 232 254 249 235 213 216 239 252 259 266 264 268 285 286 289 299 278 264 297 296 264 78 44 22 31 47 253 280 310 279 164 185 226 220 211 211 196 192 194 183 192 215 219 194 168 282 267 240 246 245 217 234 224 211 238 227 119 125 127 111 107 104 96 88 87 95 96 85 84 89 87 81 80
156 132 125 145 210 261 275 1 318 162 87 101 316 32 148 172 191 277 268 206 267 295 276 281 302 278 269 274 268 274 281 260 255 281 279 254 79 51 30 35 41 27 6 345 323 216 206 233 225 221 219 208 207 209 204 198 188 175 157 141 302 254 224 235 231 225 234 205 202 240 208 119 142 136 117 114 111 98 86 84 88 91 92 92 88 83 80 75
174 167 150 149 186 224 139 38 295 261 97 149 147 50 13 142 134 148 247 199 86 332 279 312 336 279 256 277 265 256 259 242 250 268 300 338 71 54 26 36 46 23 4 343 316 249 212 223 252 264 258 240 234 199 157 189 179 173 159 139 101 345 228 239 232 234 250 221 213 222 131 133 150 139 122 118 114 107 100 96 95 93 91 90 86 81 75 66
205 193 164 163 177 184 168 168 223 356 60 280 341 60 20 66 137 148 204 207 67 3 256 287 347 315 286 309 274 252 274 251 235 269 336 358 50 57 0 20 41 16 358 344 336 291 217 198 225 313 0 1 6 60 78 157 172 160 141 126 99 71 217 236 223 236 273 249 222 149 127 136 143 135 130 125 118 113 102 87 82 87 87 87 88 82 72 63
251 160 124 326 231 172 165 143 122 79 114 187 328 49 58 61 113 137 158 188 156 348 290 232 345 5 13 335 298 276 291 259 212 12 2 3 17 23 311 4 32 13 1 3 2 321 236 200 175 169 66 35 29 58 80 95 105 103 102 99 80 75 113 222 127 9 303 252 187 137 122 118 116 117 117 115 113 111 103 93 82 80 82 84 84 77 66 57
235 128 109 327 293 121 82 84 128 152 117 134 187 71 37 54 68 77 70 188 172 17 344 331 12 21 27 339 314 357 349 308 296 26 15 5 0 349 304 103 45 21 14 12 3 345 294 191 154 153 109 60 30 24 80 119 110 90 79 78 75 78 76 72 69 41 28 85 115 120 106 92 91 102 98 98 107 108 102 95 83 74 72 74 75 71 63 55
225 123 126 174 142 93 95 126 201 184 135 225 177 78 8 14 55 53 24 1 58 48 4 359 13 12 12 354 354 57 32 354 322 337 345 342 348 356 13 45 30 19 21 27 8 344 318 171 138 141 120 64 23 14 55 131 118 97 77 67 70 85 79 66 61 51 61 93 109 117 109 92 82 99 101 100 104 101 90 82 74 67 65 69 72 68 60 55
344 8 233 184 133 107 166 158 210 208 147 173 125 68 7 11 39 9 252 39 1 11 16 0 357 353 299 278 6 36 15 343 315 309 308 297 312 345 9 10 357 356 6 32 34 325 310 120 128 194 186 129 46 54 73 129 120 104 77 51 43 74 84 69 61 20 350 120 136 142 133 124 119 111 105 96 89 86 80 75 71 66 66 70 71 68 63 59
203 145 242 240 134 140 219 156 187 226 125 70 26 27 343 6 26 320 251 179 240 340 18 349 334 323 271 225 36 5 343 325 312 304 293 273 283 301 306 319 329 323 328 359 71 262 252 155 170 210 195 162 141 137 152 214 164 126 67 32 24 46 87 95 76 20 352 82 154 166 126 123 132 126 110 95 83 78 73 71 72 72 72 72 72 72 69 64